Home > Weather > Lawrence > Past weeks

Flag for USA Weather for the Past 2 Weeks in Lawrence, Kansas, USA

Now
43 °F

Clear.


Feels Like: 39 °F
Forecast: 43 / 75 °F
Wind: 7 mph from Northwest

Location: Lawrence Municipal Airport

Current Time: May 5, 2016 at 8:10:07 AM

Latest Report: May 5, 2016 at 6:52 AM


Visibility: 10 mi

Pressure: 30.04 "Hg

Humidity: 93%

Dew Point: 41 °F

Location of LawrenceLocation

Historic Weather in Lawrence — Graph

°F

Lawrence Temperature Yesterday

Maximum temperature yesterday: 71 °F (at 3:52 PM)
Minimum temperature yesterday: 47 °F (at 12:52 AM)
Average temperature yesterday: 58 °F

High & Low Weather Summary for the Past Weeks

 TemperatureHumidityPressure
High81 °F (Apr 23, 4:52 PM)100% (Apr 23, 3:02 AM)30.16 "Hg (Apr 23, 3:02 AM)
Low38 °F (May 3, 3:52 AM)30% (May 4, 5:52 PM)29.36 "Hg (Apr 27, 3:52 AM)
Average58 °F75%29.88 "Hg
* Reported Apr 20 6:04 AM — May 5 6:52 AM, Lawrence, Weather by CustomWeather, © 2016

Note: Actual official high and low records may vary slightly from our data, if they occured in-between our weather recording intervals... More about our weather records

Advertising

Lawrence Weather History for the Previous 24 Hours

Scroll right to see more
 ConditionsComfort  
Time TempWeatherWind HumidityBarometerVisibility
6:52 AM
Thu, May 5
43 °FClear.7 mph93%30.04 "Hg10 mi
5:52 AM42 °FClear.7 mph92%30.03 "Hg10 mi
4:52 AM41 °FClear.6 mph93%30.02 "Hg10 mi
3:52 AM41 °FClear.7 mph93%30.02 "Hg10 mi
2:52 AM42 °FClear.6 mph92%30.01 "Hg10 mi
1:52 AM43 °FClear.7 mph89%30.02 "Hg10 mi
12:52 AM44 °FClear.6 mph89%30.02 "Hg10 mi
11:52 PM
Wed, May 4
47 °FClear.8 mph83%30.01 "Hg10 mi
10:52 PM47 °FClear.7 mph80%30.01 "Hg10 mi
9:52 PM49 °FClear.5 mph80%30.00 "Hg10 mi
8:52 PM57 °FRefreshingly cool.N/A51%29.98 "HgN/A
7:52 PM63 °FSunny.8 mph41%29.97 "Hg10 mi
6:52 PM68 °FSunny.12 mph32%29.97 "Hg10 mi
5:52 PM70 °FSunny.16 mph30%29.98 "Hg10 mi
4:52 PM71 °FSunny.17 mph32%29.97 "Hg10 mi
3:52 PM71 °FSunny.16 mph31%29.98 "Hg10 mi
2:52 PM70 °FSunny.17 mph34%29.99 "Hg10 mi
1:52 PM69 °FSunny.15 mph36%30.00 "Hg10 mi
12:52 PM68 °FSunny.16 mph36%30.00 "Hg10 mi
11:52 AM67 °FSunny.16 mph42%30.01 "Hg10 mi
10:52 AM65 °FSunny.17 mph42%29.99 "Hg2 mi
9:52 AM63 °FSunny.17 mph45%29.97 "Hg10 mi
8:52 AM59 °FSunny.17 mph51%29.96 "Hg10 mi
Weather by CustomWeather, © 2016

See weather overviewHow to use our weather pages